User: anonymous   Login
Location: Mentone
(34.5413°N, 85.5351°W)
Time: 09:56:09
(UTC-05:00)
Language:

ERBS - Orbit

View from above orbital plane
View from above orbital plane
View from above satellite
View from above satellite

Ground track
Ground track

The orbit data is extracted from the following two-line orbital elements,

1 15354U 84108B   16146.06317684  .00003373  00000-0  90528-4 0  9996
2 15354  57.0098   5.8160 0017527  88.2463 272.0598 15.40714810738329
Epoch (UTC): 25 May 2016 01:30:58
Eccentricity: 0.0017527
inclination: 57.0098°
perigee height: 432 km
apogee height: 456 km
right ascension of ascending node: 5.8160°
argument of perigee: 88.2463°
revolutions per day: 15.40714810
mean anomaly at epoch: 272.0598°
orbit number at epoch: 73832

The dashed part of the orbit path shows where the satellite is in the earth's shadow,  

DLR